RH
71 71 71 70 72 72 72 74 75 74 74 74 76 77 78 83 77 14 13 23 36 57 66 32 24 25 22 20 22 24 16 20 37 13 10 8 8 8 37 65 78 70 64 72 78
71 70 70 71 72 73 73 73 74 73 75 76 77 79 81 86 59 12 30 57 60 64 22 28 25 28 16 34 20 14 18 15 13 12 10 9 10 8 53 80 88 89 78 81 90
70 70 71 70 70 71 73 76 77 77 79 80 80 80 85 88 18 13 44 63 64 68 39 35 33 31 18 19 22 39 17 14 13 13 13 10 8 8 42 52 84 92 90 91 88
70 71 69 69 69 71 77 82 79 80 81 82 81 80 84 68 22 12 48 55 49 45 26 18 21 24 24 26 23 42 20 18 16 14 12 11 8 9 30 28 71 81 85 86 87
72 72 70 68 68 71 80 83 82 81 82 82 81 79 68 15 14 10 45 28 9 10 14 18 21 26 30 26 23 26 23 22 19 14 14 12 10 10 10 59 80 79 83 87 89
74 74 72 71 71 73 78 84 85 83 82 79 77 79 29 14 8 9 8 8 9 10 10 14 25 24 28 31 32 25 27 23 21 17 15 14 13 12 24 80 88 85 91 87 88
73 78 77 73 72 76 79 80 82 80 80 78 76 68 13 14 10 10 10 11 10 11 11 12 22 24 29 25 27 26 25 22 20 18 17 16 15 15 20 82 93 91 88 88 85
72 80 78 76 74 72 74 75 77 78 74 75 76 32 18 11 12 10 11 11 11 11 12 11 17 22 26 26 26 23 29 26 19 12 15 16 20 14 14 15 87 88 92 92 88
77 79 77 75 72 72 76 77 76 74 78 75 54 16 18 18 9 11 14 13 12 13 11 9 20 18 14 38 25 19 25 19 15 15 14 16 24 14 11 15 15 32 92 94 96
77 76 76 74 71 73 77 79 72 54 41 30 15 18 12 14 12 12 14 14 15 17 12 14 17 19 19 20 27 20 21 38 22 13 16 18 21 14 14 38 41 27 15 93 95
72 72 69 70 71 78 64 41 23 23 18 18 20 16 13 11 11 13 14 15 22 20 19 19 23 26 23 19 18 18 20 22 20 16 18 16 22 16 55 57 53 56 49 38 94
68 67 67 67 68 72 62 53 50 22 20 17 17 15 12 12 15 14 14 20 29 32 22 24 28 22 18 21 19 20 27 30 22 19 18 19 22 46 69 70 64 54 56 62 47
76 73 68 66 69 63 53 48 47 30 24 19 17 18 16 11 16 17 15 22 28 35 31 30 27 24 26 39 29 30 41 40 33 26 21 23 24 74 65 67 61 61 50 52 60
81 78 79 72 60 69 45 48 48 38 39 26 19 19 16 15 26 26 27 26 33 40 39 36 32 34 41 43 40 35 44 45 44 42 42 25 36 84 68 66 75 69 63 53 54
77 78 75 59 58 61 56 70 65 54 77 22 21 16 16 18 24 33 30 33 44 44 43 55 45 45 47 44 44 42 48 55 51 56 42 38 32 74 71 80 75 75 65 54 49
79 78 73 62 70 68 77 72 61 64 57 30 21 26 30 25 35 35 38 36 42 45 47 63 49 52 54 46 50 49 58 56 54 52 58 41 32 92 93 96 80 74 68 59 52
76 76 68 65 55 74 82 64 57 71 32 32 30 31 34 40 40 44 51 60 75 62 74 59 64 60 46 63 58 64 76 84 76 75 62 42 72 94 83 98 95 91 78 62 58
75 63 70 65 74 73 63 47 66 50 47 34 37 36 42 41 46 53 56 66 64 71 88 94 86 73 53 73 80 80 87 86 81 81 77 58 80 96 81 91 95 91 86 62 66
68 76 69 65 78 66 57 88 74 56 44 45 43 51 51 44 44 55 70 75 70 69 86 93 94 60 52 56 61 72 92 79 94 86 96 80 88 80 69 74 81 86 84 72 69
50 69 52 68 83 62 67 65 55 43 43 49 58 54 63 60 56 62 71 70 68 63 73 82 97 60 54 60 56 74 67 94 95 97 78 86 94 98 92 93 83 90 94 85 71
75 38 39 74 60 63 86 58 51 38 43 52 59 62 66 69 63 73 84 73 67 65 70 84 84 81 58 82 89 85 85 76 95 97 98 94 98 94 95 90 86 85 95 95 81
65 62 48 58 61 83 67 52 49 43 45 51 56 63 72 68 72 80 86 79 68 76 84 84 81 96 82 57 55 65 72 90 95 97 95 94 97 73 74 75 74 71 82 94 88
66 63 60 52 81 78 50 46 46 45 47 50 60 63 65 72 74 77 75 71 71 74 89 70 78 95 86 63 60 90 65 63 88 65 89 95 96 52 64 73 73 74 66 73 87
57 82 67 70 69 55 54 58 53 44 49 48 69 77 78 72 68 70 75 69 73 70 58 57 76 83 85 79 90 95 74 63 63 74 82 85 87 75 72 88 76 73 69 65 69
81 77 66 79 65 62 60 58 57 57 48 51 61 70 89 80 74 75 75 73 77 79 77 74 89 83 86 89 81 83 92 82 80 75 78 91 82 82 82 89 89 71 72 70 70
80 68 71 66 57 55 64 61 56 52 54 60 67 70 70 79 71 74 75 78 83 91 96 82 94 95 98 87 60 65 81 76 72 87 86 82 78 69 75 80 81 78 75 84 81
85 76 64 63 55 57 58 56 61 57 59 56 65 76 73 68 58 60 63 75 81 94 95 92 94 99 95 83 86 67 83 97 96 97 99 97 87 86 80 82 84 84 78 90 89
Wind_Speed
7 8 8 8 8 8 8 9 10 11 11 11 12 13 15 17 14 5 10 6 5 11 11 8 5 8 4 3 4 4 6 2 4 6 5 5 8 6 5 5 4 5 4 13 22
8 7 7 8 8 8 9 10 11 11 11 10 11 12 13 14 3 10 6 12 13 8 6 9 9 9 4 3 3 5 5 10 4 2 5 8 3 6 5 7 6 10 17 22 20
6 7 7 8 9 9 9 9 10 10 11 10 10 10 10 8 5 5 12 15 14 3 1 2 2 0 4 5 4 1 4 4 1 3 5 6 9 5 6 2 5 13 19 20 22
6 7 8 9 9 10 9 8 10 10 11 11 9 8 9 2 2 5 15 15 11 2 3 5 5 4 3 3 4 1 2 5 6 8 6 6 7 3 1 3 8 14 22 21 22
6 7 8 10 10 10 9 8 9 10 10 8 6 7 1 7 2 9 16 11 6 5 5 5 6 3 2 3 5 1 5 7 6 6 7 6 5 4 3 2 13 14 16 20 17
7 8 9 11 10 9 8 7 8 7 6 5 5 5 2 7 4 9 10 9 4 4 5 5 0 2 1 2 2 4 3 7 4 5 5 4 5 3 4 6 14 18 18 19 19
7 8 8 8 8 8 8 7 6 7 6 5 5 2 11 1 4 8 7 4 4 2 4 2 2 3 1 6 3 3 5 4 10 10 7 10 6 2 5 6 16 17 14 18 20
8 7 7 8 9 8 7 6 7 7 7 3 6 3 4 3 4 9 10 9 8 4 1 4 2 6 5 6 8 7 7 6 6 14 7 8 4 6 17 16 8 11 10 15 18
7 7 8 9 9 8 8 8 8 6 8 4 2 5 2 7 7 7 4 7 6 5 9 6 9 5 10 4 6 9 3 4 11 5 6 8 5 17 16 9 12 12 7 9 11
7 7 7 8 9 9 11 5 4 3 2 1 3 7 5 2 6 7 6 10 6 4 8 11 7 6 6 7 1 2 2 2 2 7 7 3 2 12 13 16 17 16 14 8 12
7 6 7 7 8 10 7 4 7 9 10 3 2 5 2 5 4 9 6 8 8 9 6 7 10 4 3 3 2 1 2 2 3 7 7 6 3 8 14 24 23 23 23 15 9
7 7 7 7 9 9 4 6 2 3 5 3 3 3 2 3 4 12 8 8 9 7 4 8 6 2 3 6 4 5 2 4 4 5 5 9 6 9 16 18 20 22 25 25 21
9 8 7 8 8 6 4 3 4 6 6 2 1 1 1 5 6 10 7 3 6 7 6 6 3 5 7 7 6 3 3 3 3 6 3 6 4 7 13 18 18 23 22 24 25
9 9 9 9 8 3 3 7 4 3 6 2 2 2 2 4 5 4 6 3 7 4 3 4 7 6 7 5 3 1 4 4 5 4 3 4 5 8 16 18 21 22 23 24 26
11 11 9 10 3 3 5 6 4 5 5 1 1 1 3 7 4 13 4 6 4 5 5 2 7 7 8 6 4 3 3 3 5 3 1 3 2 9 8 16 21 20 21 23 22
11 11 4 5 3 2 6 4 6 9 4 2 3 1 3 6 4 5 8 7 2 4 5 4 3 7 4 7 4 6 4 5 4 3 1 4 5 8 10 13 20 21 20 21 23
11 10 4 2 2 4 3 5 7 8 5 3 3 3 5 5 4 3 8 11 5 4 6 6 7 5 10 6 6 13 5 4 5 3 5 3 7 5 11 10 12 18 20 19 19
11 5 4 1 2 2 4 7 9 4 3 4 4 5 5 3 4 5 3 5 6 4 2 3 6 9 11 5 5 4 3 2 3 2 4 5 7 4 4 8 10 13 15 18 18
3 4 3 3 1 4 7 8 7 2 3 5 3 5 4 5 4 5 4 3 2 5 2 2 2 2 9 5 5 5 2 4 3 1 1 3 5 11 13 12 14 17 18 18 17
3 3 3 6 3 6 8 4 1 2 4 2 3 3 2 6 4 4 2 4 5 5 1 1 1 7 5 7 9 2 6 1 0 3 5 5 3 4 17 17 17 18 17 18 18
5 5 4 5 4 8 6 2 0 3 2 4 3 3 4 1 4 3 4 0 3 5 2 2 3 5 6 5 1 7 5 4 5 1 3 2 1 5 10 12 13 14 14 15 16
3 4 4 3 7 2 2 2 3 5 6 4 5 5 3 3 5 4 1 2 5 2 2 2 4 2 5 3 3 4 9 5 4 0 3 2 2 8 9 12 10 15 16 14 13
4 1 4 6 5 3 3 5 3 5 5 3 3 4 4 2 4 3 3 2 7 5 1 1 2 2 2 4 5 4 10 9 3 3 6 2 3 10 9 11 12 13 14 14 13
5 4 6 6 1 7 4 2 2 2 5 5 4 5 4 5 5 3 5 5 3 3 13 6 5 6 6 7 3 4 11 13 6 4 2 3 6 10 13 10 10 10 11 13 13
4 2 3 0 5 4 3 1 2 3 3 6 5 3 4 2 3 4 2 4 5 7 5 6 3 4 0 4 4 2 6 9 12 8 4 4 5 9 10 9 10 9 9 14 14
5 5 4 2 1 6 4 0 2 2 3 2 4 1 3 4 4 1 2 2 1 5 4 3 3 4 3 8 4 7 8 8 5 4 1 3 4 4 7 7 7 9 10 10 14
0 2 7 4 2 4 2 3 1 4 4 3 6 5 5 2 5 2 5 2 1 4 3 3 6 3 5 9 11 4 4 1 4 3 5 1 8 4 6 9 8 8 9 10 13
Wind_Direction
343 336 335 335 335 327 330 345 348 348 344 347 342 343 345 348 332 23 41 263 284 302 314 296 20 355 49 43 15 119 65 192 249 168 272 316 356 358 319 80 34 343 146 135 142
332 320 324 322 324 327 340 346 344 339 331 334 337 339 343 343 2 34 301 312 285 290 342 8 355 351 19 27 26 89 118 212 220 285 308 309 313 326 37 351 27 60 91 121 135
307 318 319 323 330 334 334 335 335 330 327 319 330 335 333 330 54 331 332 332 341 240 252 306 292 20 25 13 17 119 186 212 281 261 313 289 313 313 143 211 238 159 143 141 148
317 325 327 331 326 327 327 332 336 328 319 313 321 326 325 354 47 285 331 328 350 129 359 353 5 36 56 18 324 353 35 48 309 332 336 310 305 292 74 270 160 171 152 150 161
325 326 328 321 324 323 323 342 336 335 313 312 323 329 59 51 4 304 323 330 346 9 26 16 36 13 7 322 342 126 345 346 318 310 283 290 289 309 278 124 127 145 155 162 166
326 329 330 320 324 315 328 351 347 326 344 352 330 324 101 75 299 324 327 332 11 23 353 15 353 271 293 355 72 311 293 314 321 335 293 326 293 29 312 132 140 158 174 174 172
330 334 333 322 326 331 349 347 331 338 343 321 328 318 66 39 341 314 356 293 304 297 334 308 304 52 345 339 338 325 1 358 18 329 38 332 344 202 321 180 163 183 177 179 184
343 340 340 346 348 347 338 314 304 302 316 326 353 37 85 302 297 8 340 341 343 11 258 294 356 84 24 321 23 25 45 6 345 12 354 12 264 14 2 343 271 196 191 188 190
345 349 353 350 352 347 317 295 293 285 288 266 28 86 36 329 355 333 4 326 317 354 17 57 62 76 7 48 27 10 67 15 327 40 350 48 326 330 335 347 329 309 247 193 196
351 355 352 353 2 341 316 290 300 328 94 167 47 51 11 312 312 322 324 16 28 344 25 33 52 69 14 47 181 335 14 337 305 325 342 3 348 308 346 16 357 344 293 251 193
354 4 358 351 349 347 6 23 24 5 29 111 139 105 115 270 2 355 345 2 20 47 51 13 67 72 41 57 123 55 20 297 275 318 343 308 14 314 30 27 19 12 4 301 244
6 11 358 345 341 347 61 75 119 182 70 356 63 71 157 135 30 357 20 54 31 48 7 25 62 277 14 16 60 48 30 335 297 335 324 328 308 92 47 39 22 14 13 357 334
15 18 6 345 334 35 47 46 337 113 99 316 346 47 171 71 40 340 31 64 52 35 20 109 341 22 95 40 41 87 49 338 296 319 9 2 8 40 25 29 20 18 13 6 1
8 10 358 320 53 300 45 325 314 121 77 331 330 315 77 104 38 10 8 40 33 21 30 54 334 88 73 54 13 243 316 352 336 44 294 74 275 35 16 12 16 10 6 3 1
7 9 36 54 163 56 299 318 348 55 49 324 66 299 54 86 156 348 319 30 59 12 72 319 27 26 41 344 335 254 333 308 245 213 318 289 103 357 11 0 3 360 0 0 1
1 11 114 34 39 284 320 351 44 47 270 341 116 151 52 38 51 348 25 44 56 62 46 63 336 50 314 315 50 336 347 344 41 118 228 243 155 36 14 357 348 354 354 357 354
352 352 66 101 203 320 6 44 44 104 274 359 37 77 73 23 77 54 45 42 50 26 14 340 50 348 11 348 347 15 28 349 360 13 228 359 74 41 7 6 354 348 347 353 351
349 46 350 178 335 24 51 56 76 275 349 354 26 77 70 27 34 19 63 40 13 60 71 36 351 8 354 49 294 307 43 146 296 282 294 320 145 157 41 14 0 349 345 350 352
51 1 14 303 35 58 72 57 193 261 334 350 13 57 7 10 94 74 58 35 17 20 92 56 82 347 49 25 19 336 37 344 268 263 165 165 72 229 8 3 359 357 351 350 351
71 33 330 317 67 62 71 126 246 321 344 21 98 38 75 355 62 77 50 299 340 15 109 173 145 27 355 26 354 303 327 333 304 235 240 102 90 299 343 343 355 354 345 342 343
54 50 267 337 60 49 103 147 326 350 70 61 57 85 63 71 42 46 358 186 341 324 27 81 103 311 35 11 3 345 357 298 267 195 267 156 150 351 334 336 344 349 334 333 335
88 50 306 41 52 24 61 19 52 3 23 64 78 66 72 40 40 48 90 301 325 333 29 340 106 70 189 143 35 14 340 276 285 223 12 117 157 354 343 331 345 349 338 333 329
84 266 326 78 102 1 19 35 78 29 20 61 87 73 49 60 86 48 16 33 37 45 84 326 63 115 256 345 5 9 357 355 225 106 25 31 342 360 339 343 348 340 338 328 346
82 44 339 44 79 119 108 35 71 62 40 69 100 67 59 40 26 35 13 1 40 64 54 76 25 153 173 197 200 355 17 20 33 58 81 39 346 335 340 328 325 330 336 344 350
42 246 185 302 350 95 94 75 66 38 59 29 35 134 143 112 27 357 26 359 36 11 47 88 73 67 286 233 205 59 7 27 41 31 69 309 336 325 320 305 285 316 334 350 343
125 128 21 73 48 79 8 46 113 69 52 9 110 94 142 132 171 217 48 51 283 23 53 35 160 62 322 233 194 75 41 17 42 19 343 282 267 234 291 273 296 318 339 326 357
212 44 100 335 37 76 243 169 180 111 37 47 148 104 79 154 157 125 123 129 197 153 116 106 134 127 254 220 274 293 309 347 311 255 183 356 240 290 311 316 317 310 331 328 323